Flag Weather past 2 weeks in Sonneberg, Thuringia, Germany

Now
36 °F

Fog.


Feels Like: 33 °F
Forecast: 31 / 40 °F
Wind: 3 mph from North

Location: Hof Airport

Current Time: Nov 24, 2014 at 9:43:01 PM

Latest Report: Nov 24, 2014 at 8:20 PM


Visibility: 2 mi

Pressure: 30.27 "Hg

Humidity: 93%

Dew point: 34 °F

Location of SonnebergLocation

Historic Weather in Sonneberg — Graph

°F

Sonneberg temperature yesterday

Maximum temperature yesterday: 41 °F (at 11:50 AM)
Minimum temperature yesterday: 32 °F (at 8:50 AM)
Average temperature yesterday: 37 °F

Past Weeks' High & Low Weather Summary

 TemperatureHumidityPressure
High54 °F (Nov 12, 12:20 PM)94% (Nov 12, 9:50 AM)30.30 "Hg (Nov 12, 9:50 AM)
Low32 °F (Nov 23, 8:50 AM)72% (Nov 15, 1:20 PM)29.53 "Hg (Nov 16, 8:50 AM)
Average42 °F88%29.94 "Hg
* Reported Nov 10 5:20 AM — Nov 24 7:50 PM, Sonneberg, Weather by CustomWeather, © 2014

Note: Actual official high and low records may vary slightly from our data, if they occured in-between our weather recording intervals... More about our weather records

Advertising

Sonneberg weather history for previous 24 hours

 ConditionsComfort  
Time TempWeatherWind HumidityBarometerVisibility
7:50 PM
Nov 24
39 °FFog.5 mph87%30.27 "Hg2 mi
7:20 PM39 °FOvercast.6 mph93%30.27 "Hg5 mi
6:50 PM39 °FPassing clouds.5 mph93%30.27 "Hg5 mi
6:20 PM41 °FPassing clouds.5 mph87%30.27 "Hg6 mi
5:50 PM41 °FPassing clouds.6 mph93%30.27 "Hg5 mi
4:50 PM41 °FMostly cloudy.1 mph93%30.24 "Hg4 mi
4:20 PM41 °FOvercast.3 mph93%30.24 "Hg4 mi
3:20 PM41 °FFog.1 mph93%30.21 "Hg3 mi
2:50 PM41 °FLight rain. Mostly cloudy.No wind93%30.21 "Hg3 mi
2:20 PM41 °FLight rain. Mostly cloudy.2 mph93%30.21 "Hg3 mi
1:50 PM41 °FDrizzle. Overcast.2 mph93%30.21 "Hg3 mi
1:20 PM41 °FLight rain. Overcast.2 mph87%30.21 "Hg4 mi
12:50 PM41 °FDrizzle. Overcast.3 mph87%30.18 "Hg3 mi
12:20 PM41 °FDrizzle. Overcast.5 mph87%30.21 "Hg4 mi
11:50 AM41 °FDrizzle. Overcast.5 mph87%30.21 "Hg4 mi
11:20 AM39 °FMostly cloudy.2 mph93%30.21 "Hg4 mi
10:50 AM39 °FLight rain. Overcast.3 mph93%30.21 "Hg4 mi
10:20 AM39 °FMostly cloudy.3 mph87%30.21 "Hg5 mi
9:50 AM39 °FCloudy.3 mph87%30.18 "Hg6 mi
9:20 AM39 °FScattered clouds.6 mph87%30.18 "Hg6 mi
8:50 AM37 °FClear.3 mph93%30.18 "Hg4 mi
8:20 AM37 °FClear.3 mph87%30.15 "Hg4 mi
7:50 AM37 °FClear.5 mph87%30.12 "Hg4 mi
7:20 AM37 °FClear.7 mph87%30.12 "Hg5 mi
6:50 AM37 °FClear.7 mph87%30.12 "Hg5 mi
6:20 AM37 °FClear.6 mph93%30.12 "Hg4 mi
5:50 AM37 °FClear.8 mph87%30.12 "Hg4 mi
Weather by CustomWeather, © 2014

See weather overviewHow to use our weather pages